Regional Weather Roundup
Issued by NWS

Home | Current Version | Previous Version | Text Only | Print | Product List | Glossary On
Versions: 1 2 3 4 5 6 7 8 9 10 11 12 13 14 15 16 17 18 19 20 21 22 23 24 25 26 27 28 29 30 31 32 33 34 35 36 37 38 39 40 41 42 43 44 45 46 47 48 49 50
697
ASUS46 KPQR 300210
RWROR

OREGON REGIONAL WEATHER ROUNDUP
NATIONAL WEATHER SERVICE PORTLAND OR
700 PM PDT WED MAR 29 2017

NOTE: "FAIR" INDICATES FEW OR NO CLOUDS BELOW 12,000 FEET WITH
NO SIGNIFICANT WEATHER AND/OR OBSTRUCTIONS TO VISIBILITY.

ORZ001>013-300300-
NORTHWEST OREGON


CITY           SKY/WX    TMP DP  RH WIND       PRES   REMARKS
ASTORIA        CLOUDY    48  40  73 W14G20    30.04R
NEWPORT        CLOUDY    46  46 100 W8        30.12R FOG
PORTLAND       PTCLDY    57  46  66 W12       30.00R
VANCOUVER WA   PTCLDY    56  47  71 W12       30.00R
SCAPPOOSE      LGT RAIN  51  48  89 NW5       30.00R FOG
HILLSBORO      PTCLDY    54  44  69 W9        30.00R
AURORA         MOCLDY    54  45  71 SW10      30.02S
MCMINNVILLE    PTCLDY    53  43  68 W14       30.03R
SALEM          CLEAR     54  46  74 SW12      30.02R
CORVALLIS      MOCLDY    54  46  76 CALM      30.05R
EUGENE         MOCLDY    54  50  86 W12       30.06S
$$

ORZ021-028-300300-
SOUTHWEST OREGON


CITY           SKY/WX    TMP DP  RH WIND       PRES   REMARKS
NORTH BEND     CLOUDY    52  50  93 W10       30.13S
BROOKINGS      LGT RAIN  51  51 100 VRB5      30.14F VSB 1/2
ROSEBURG       LGT RAIN  55  50  83 VRB3      30.07S
SEXTON SUMMIT  FOG       41  41 100 S9G18     30.06F VSB<1/4
MEDFORD        CLOUDY    51  49  92 NW3       30.09F
$$

ORZ014>016-041-300300-
COLUMBIA GORGE


CITY           SKY/WX    TMP DP  RH WIND       PRES   REMARKS
TROUTDALE      CLOUDY    57  50  77 SW8       29.99R
THE DALLES     CLOUDY    56  47  71 NW15      29.92R
$$

ORZ029>031-041-044-049-050-061>064-502-503-505>511-300300-
EASTERN OREGON


CITY           SKY/WX    TMP DP  RH WIND       PRES   REMARKS
REDMOND        PTCLDY    49  36  61 SW13G21   29.96F
BEND           PTCLDY    48  37  66 SW20G29   29.98S
PRINEVILLE     PTCLDY    50  39  66 SW15      29.96F
KLAMATH FALLS  CLOUDY    48  47  96 W9        30.08F
LAKEVIEW       CLOUDY    46  45  93 S12       30.09S
HERMISTON      CLOUDY    59  49  69 W8        29.88F
PENDLETON      CLOUDY    56  49  77 CALM      29.89F
JOHN DAY       CLOUDY    49  45  87 CALM      29.97S
MEACHAM        CLOUDY    45  41  86 CALM      29.93F
LA GRANDE      CLOUDY    48  43  81 S10       29.92F
BAKER CITY     CLOUDY    43  42  97 NE10      29.97
BURNS          CLOUDY    46  40  79 SW18      30.01F
ROME             N/A     52  48  86 SW13      30.01S
ONTARIO        LGT RAIN  50  47  89 N5        29.99F
$$




USA.gov is the U.S. government's official web portal to all federal, state and local government web resources and services.